SCP
0 0 0 0 0 0 0 0 0 0 0 0 0 0 0 0 0 0 0 0 0 0 0 0 0 0 0 0 0 0 0 0 0 0 0 0 0 0 0 0 0 0 0 0
0 0 0 0 0 0 0 0 0 0 0 0 0 0 0 0 0 0 0 0 0 0 0 0 0 0 0 0 0 0 0 0 0 0 0 0 0 0 0 0 0 0 0 0
0 0 0 0 0 0 0 0 0 0 0 0 0 0 0 0 0 0 0 0 0 0 0 0 0 0 0 0 0 0 0 0 0 0 0 0 0 0 0 0 0 0 0 0
0 0 0 0 0 0 0 0 0 0 0 0 0 0 0 0 0 0 0 0 0 0 0 0 0 0 0 0 0 0 0 0 0 0 0 0 0 0 0 0 0 0 0 0
0 0 0 0 0 0 0 0 0 0 0 0 0 0 0 0 0 0 0 0 0 0 0 0 0 0 0 0 0 0 0 0 0 0 0 0 0 0 0 0 0 0 0 0
0 0 0 0 0 0 0 0 0 0 0 0 0 0 0 0 0 0 0 0 0 0 0 0 0 0 0 0 0 0 0 0 0 0 0 0 0 0 0 0 0 0 0 0
0 0 0 0 0 0 0 0 0 0 0 0 0 0 0 0 0 0 0 0 0 0 0 0 0 0 0 0 0 0 0 0 0 0 0 0 0 0 0 0 0 0 0 0
0 0 0 0 0 0 0 0 0 0 0 0 0 0 0 0 0 0 0 0 0 0 0 0 0 0 0 0 0 0 0 0 0 0 0 0 0 0 0 0 0 0 0 0
0 0 0 0 0 0 0 0 0 0 0 0 0 0 0 0 0 0 0 0 0 0 0 0 0 0 0 0 0 0 0 0 0 0 0 0 0 0 0 0 0 0 0 0
0 0 0 0 0 0 0 0 0 0 0 0 0 0 0 0 0 0 0 0 0 0 0 0 0 0 0 0 0 0 0 0 0 0 0 0 0 0 0 0 0 0 0 0
0 0 0 0 0 0 0 0 0 0 0 0 0 0 0 0 0 0 0 0 0 0 0 0 0 0 0 0 0 0 0 0 0 0 0 0 0 0 0 0 0 0 0 0
0 0 0 0 0 0 0 0 0 0 0 0 0 0 0 0 0 0 0 0 0 0 0 0 0 0 0 0 0 0 0 0 0 0 0 0 0 0 0 0 0 0 0 0
0 0 0 0 0 0 0 0 0 0 0 0 0 0 0 0 0 0 0 0 0 0 0 0 0 0 0 0 0 0 -0 0 0 0 0 0 0 0 0 0 0 0 0 0
0 0 0 0 0 0 0 0 0 0 0 0 0 0 0 0 0 0 0 0 0 0 0 0 0 0 0 0 0 0 0 0 0 0 0 0 0 0 0 0 0 0 0 0
0 0 0 0 0 0 0 0 0 0 0 0 0 0 0 0 0 0 0 0 0 0 0 0 0 0 0 0 0 0 0 0 0 0 0 0 0 0 0 0 0 0 0 0
0 0 0 0 0 0 0 0 0 0 0 0 0 0 0 0 0 0 0 0 0 0 0 0 0 0 0 0 0 0 0 0 0 0 0 0 0 0 0 0 0 0 0 0
0 0 0 0 0 0 0 0 0 0 0 0 0 0 0 0 0 0 0 0 0 0 0 0 0 0 0 0 0 0 0 0 0 0 0 0 0 0 0 0 0 0 0 0
0 0 0 0 0 0 0 0 0 0 0 0 0 0 0 0 0 0 0 0 0 0 0 0 0 0 0 0 0 0 0 0 0 0 0 0 0 0 0 0 0 0 0 0
0 0 0 0 0 0 0 0 0 0 0 0 0 0 0 0 0 0 0 0 0 0 0 0 0 0 0 0 0 0 0 0 0 0 0 0 0 0 0 0 0 0 0 0
0 0 0 0 0 0 0 0 0 0 0 0 0 0 0 0 0 0 0 0 0 0 0 0 0 0 0 0 0 0 0 0 0 0 0 0 0 0 0 0 0 0 0 0
0 0 0 0 0 0 0 0 0 0 0 0 0 0 0 0 0 0 0 0 0 0 0 0 0 0 0 0 0 0 0 0 0 0 0 0 0 0 0 0 0 0 0 0
0 0 0 0 0 0 0 0 0 0 0 0 0 0 0 0 0 0 0 0 0 0 0 0 0 0 0 0 0 0 0 0 0 0 0 0 0 0 0 0 0 0 0 0
0 0 0 0 0 0 0 0 0 0 0 0 0 0 0 0 0 0 0 0 0 0 0 0 0 0 0 0 0 0 0 0 0 0 0 0 0 0 0 0 0 0 0 0
0 0 0 0 0 0 0 0 0 0 0 0 0 0 0 0 0 0 0 0 0 0 0 0 0 0 0 0 0 0 0 0 0 0 0 0 0 0 0 0 0 0 0 0
0 0 0 0 0 0 0 0 0 0 0 0 0 0 0 0 0 0 0 0 0 0 0 0 0 0 0 0 0 0 0 0 0 0 0 0 0 0 0 0 0 0 0 0
0 0 0 0 0 0 0 0 0 0 0 0 0 0 0 0 0 0 0 0 0 0 0 0 0 0 0 0 0 0 0 0 0 0 0 0 0 0 0 0 0 0 0 0
0 0 0 0 0 0 0 0 0 0 0 0 0 0 0 0 0 0 0 0 0 0 0 0 0 0 0 0 0 0 0 0 0 0 0 0 0 0 0 0 0 0 0 0
Wind_Speed_500mb
7 7 11 17 38 34 29 47 28 36 21 14 18 23 20 40 40 39 40 43 45 45 44 44 45 45 44 44 43 42 39 36 32 30 29 26 23 21 23 23 20 18 19 21
15 6 10 5 22 38 49 43 43 9 15 15 5 23 29 44 49 50 49 45 43 43 42 40 39 38 38 38 39 40 38 34 35 36 34 31 27 23 23 25 24 22 20 25
21 14 15 6 36 39 30 36 47 19 61 17 13 20 43 62 66 62 53 50 47 41 37 35 34 33 33 34 37 38 37 37 38 38 37 34 30 27 23 26 28 24 22 23
7 19 20 22 24 37 46 33 49 54 14 31 23 55 56 64 73 62 55 48 42 38 35 32 30 29 29 30 31 32 33 36 38 37 36 35 32 28 24 25 26 25 23 23
12 18 4 4 14 23 30 43 45 59 49 17 26 30 23 61 69 66 57 44 38 34 31 28 25 24 23 23 25 27 29 31 34 33 33 32 31 26 22 23 24 24 22 18
9 11 28 19 14 33 16 26 39 57 49 23 44 26 20 65 68 64 54 47 42 35 31 27 25 22 18 16 17 20 24 27 29 29 28 27 26 24 22 22 24 25 22 22
18 7 14 13 20 56 18 25 22 65 63 54 37 49 48 75 77 67 61 55 46 39 35 32 29 27 25 24 23 22 22 22 23 23 24 24 25 24 21 21 21 21 21 23
12 10 12 24 33 38 19 6 7 47 66 87 77 61 62 85 90 79 71 64 55 52 48 45 42 37 40 37 33 27 22 19 19 19 20 20 21 20 19 18 20 13 10 17
23 16 6 76 16 33 5 6 12 34 54 64 63 63 79 95 93 88 78 72 64 60 61 58 52 47 50 51 45 40 33 26 18 15 14 15 17 19 19 18 18 14 15 16
7 13 13 57 21 61 13 10 12 23 52 69 72 76 82 99 94 87 81 78 73 70 67 64 56 51 51 49 43 37 33 30 26 20 13 7 11 15 16 18 21 21 21 19
10 5 9 18 52 19 37 12 19 29 54 69 78 79 97 104 97 92 88 82 76 73 70 64 55 51 48 43 37 31 26 23 18 15 12 8 4 7 15 18 20 24 22 23
7 6 9 14 53 57 47 36 40 52 61 68 86 95 101 100 102 101 95 87 79 73 68 62 53 47 42 37 32 27 21 16 9 4 3 3 3 2 5 12 18 22 27 26
12 45 23 9 53 66 50 44 51 56 67 87 85 105 109 109 101 99 94 86 79 73 65 58 49 42 36 30 26 24 19 16 11 5 7 12 12 10 8 7 11 18 23 28
67 50 26 23 29 57 49 51 56 58 72 85 95 105 113 113 106 98 89 80 73 67 60 51 42 34 29 25 23 21 19 16 13 10 8 11 15 17 17 14 13 12 15 20
65 59 55 43 34 53 50 60 62 70 78 84 93 109 116 117 109 99 89 80 70 60 53 43 33 27 23 20 17 17 16 14 12 13 12 11 11 15 20 23 21 17 14 15
60 60 46 41 53 65 65 66 74 79 82 91 100 111 116 111 104 95 84 73 65 56 45 35 26 19 13 12 13 14 12 13 14 18 17 16 17 17 19 20 21 23 21 19
34 26 41 50 69 76 81 78 78 87 90 98 112 119 116 109 98 88 78 66 54 45 35 25 15 9 9 10 13 13 14 15 15 17 16 15 16 18 21 21 20 21 23 22
37 44 59 67 81 81 75 74 78 86 96 105 115 112 107 101 96 83 71 60 47 37 26 16 8 4 7 11 13 12 10 11 12 13 13 13 15 15 16 18 20 22 23 22
32 30 41 56 76 83 80 79 86 92 101 116 118 112 102 93 82 73 63 50 39 29 19 12 5 2 7 9 10 8 8 8 9 11 12 12 12 14 16 18 19 21 22 24
30 36 46 63 75 82 87 85 90 97 111 115 110 102 93 81 71 63 52 42 32 23 19 13 7 2 2 4 7 8 8 8 9 11 13 15 15 14 15 17 20 22 24 26
41 48 59 66 72 73 77 86 102 114 113 104 103 95 85 75 62 49 41 30 26 23 17 12 9 4 3 7 9 9 10 11 13 15 16 17 19 20 21 21 22 22 23 25
57 67 71 71 76 85 90 96 109 111 103 93 81 75 67 60 50 42 32 25 23 18 14 10 5 3 8 9 10 13 16 18 20 21 23 23 23 22 22 24 24 25 27 28
68 74 80 84 92 101 101 98 96 90 90 82 71 61 52 47 40 36 35 29 24 17 11 7 6 8 10 11 14 17 20 22 24 25 26 27 29 29 29 28 27 28 26 26
87 92 99 102 103 103 101 89 81 72 65 61 55 45 41 45 42 33 27 23 17 12 9 7 8 11 15 17 19 21 24 26 28 30 31 33 33 34 34 34 33 32 30 30
95 100 100 98 98 96 93 84 75 65 60 57 54 48 42 37 28 28 24 17 11 6 4 8 13 17 21 23 25 26 27 29 32 34 36 36 36 37 37 38 38 37 35 33
84 88 89 86 84 77 72 66 64 58 52 51 47 40 33 28 23 17 12 8 5 4 8 12 16 20 24 27 29 31 32 32 33 34 36 38 38 39 40 40 40 40 42 41
79 77 77 76 69 64 60 56 58 56 49 42 38 35 28 23 18 13 8 4 6 9 14 17 20 23 26 28 30 32 34 35 35 34 35 38 39 40 41 42 42 42 44 44
Wind_Direction_500mb
212 136 168 190 195 191 201 218 206 237 220 220 215 210 198 182 179 177 178 181 186 189 192 196 199 202 205 208 213 217 220 222 223 223 223 222 222 219 217 216 214 217 215 212
213 87 94 116 192 196 209 221 228 169 267 224 171 157 186 195 185 187 184 177 176 181 187 191 195 200 204 210 217 223 226 226 225 226 226 225 224 223 220 220 219 220 222 216
221 129 90 290 209 190 210 217 221 211 230 161 194 191 189 199 198 192 187 179 177 178 180 185 188 195 201 207 214 220 221 221 224 225 225 223 221 224 222 220 222 225 228 227
145 132 211 238 167 188 203 214 221 239 194 210 196 211 210 204 196 190 189 183 180 180 181 185 189 196 205 212 217 219 219 218 219 219 220 220 220 219 219 223 226 231 238 234
163 195 313 180 198 179 181 238 220 228 230 221 190 169 210 206 202 189 184 179 180 177 177 178 180 184 192 199 206 209 211 211 212 214 217 219 219 219 220 223 225 233 243 236
163 161 207 228 171 147 98 269 214 216 220 168 147 207 211 194 195 188 180 176 176 170 166 161 158 155 155 160 172 182 190 194 197 201 207 211 214 215 217 221 221 226 237 234
192 190 266 218 148 140 142 245 188 200 203 176 193 211 195 188 187 185 174 169 165 156 148 144 141 138 139 135 138 146 160 173 182 192 200 205 206 209 216 220 223 232 246 239
161 158 244 162 149 172 214 66 195 201 199 194 199 193 193 185 177 173 169 163 158 152 145 135 125 127 122 121 117 121 133 150 165 181 191 197 203 208 215 219 222 225 234 235
194 188 175 170 194 185 163 207 222 206 201 194 184 178 178 177 171 168 165 159 156 153 142 131 126 124 118 107 102 99 100 105 121 146 171 187 199 207 216 221 220 211 229 232
123 203 195 197 202 201 200 237 244 208 187 184 174 170 162 166 165 161 159 155 152 147 139 131 127 120 110 103 98 94 91 89 88 89 99 152 201 212 221 227 218 211 215 222
257 47 91 208 209 202 210 233 199 179 185 179 172 164 168 164 161 158 156 152 150 145 137 130 126 117 109 103 97 89 80 75 71 70 73 82 106 226 231 230 224 215 222 224
253 186 151 201 203 211 212 202 185 172 168 176 175 166 164 159 160 157 153 151 148 142 136 129 124 116 107 98 88 76 65 63 59 38 342 340 334 292 250 245 239 234 223 228
267 321 270 211 206 209 210 199 181 177 175 169 169 167 165 160 158 154 150 148 145 140 134 128 123 116 104 92 77 61 43 33 24 352 263 254 259 265 268 260 249 244 240 236
262 269 275 222 213 200 200 187 177 172 170 171 166 165 163 157 153 152 148 146 143 139 134 130 124 115 99 77 57 36 19 2 344 328 302 274 259 261 265 262 253 254 249 247
235 225 233 243 209 186 183 172 165 162 165 165 167 164 160 155 153 151 149 148 145 141 136 130 121 104 82 60 38 16 358 335 317 302 295 290 283 271 263 265 264 261 257 260
229 222 223 221 194 179 176 171 167 162 165 164 163 159 157 155 152 150 149 149 147 141 135 127 115 99 80 49 10 354 333 314 299 288 286 282 277 270 268 266 266 267 266 260
180 175 188 191 186 181 179 175 175 169 167 164 163 160 156 153 150 148 146 145 145 135 125 127 124 99 53 17 355 338 325 317 302 289 291 287 278 269 266 268 270 271 270 268
218 213 211 208 185 175 171 171 171 167 167 165 160 157 155 154 151 148 146 144 137 134 138 146 132 60 358 352 348 345 347 336 318 307 298 293 287 279 268 265 269 272 274 273
223 226 207 197 184 176 171 168 167 168 164 161 158 158 156 153 149 147 142 137 143 151 159 170 175 356 349 349 346 351 5 5 354 348 342 333 318 302 293 285 276 274 278 281
185 185 182 179 175 173 167 167 164 161 160 160 156 152 150 147 145 141 140 149 153 163 172 161 144 110 346 313 302 312 332 336 339 336 330 326 322 316 309 305 297 292 288 285
165 162 164 164 157 159 159 161 161 157 154 156 153 148 145 141 140 144 150 148 159 174 166 157 149 133 245 270 283 303 318 328 330 327 323 318 314 312 310 306 300 295 290 286
153 152 149 151 150 146 147 152 151 147 147 146 144 140 141 140 142 140 148 158 170 158 147 146 137 224 254 267 289 304 312 317 318 318 316 315 314 313 310 305 299 293 289 288
138 140 140 143 141 135 136 138 138 141 140 139 140 144 146 140 146 161 157 159 162 162 159 163 215 254 274 283 292 301 308 312 312 311 310 311 310 311 309 306 303 298 294 289
131 131 131 131 132 133 133 134 138 139 136 133 133 134 143 152 155 152 152 161 165 174 191 227 266 280 284 286 289 298 303 306 307 307 308 309 309 307 307 305 304 300 298 296
129 130 130 133 135 132 134 137 140 140 140 141 145 149 150 151 154 152 158 162 168 185 239 272 281 285 291 292 294 295 295 297 300 302 303 304 305 305 305 302 301 299 296 295
128 127 130 132 132 134 135 139 139 139 143 141 140 141 143 142 143 143 141 149 179 242 269 279 285 287 286 289 293 295 295 296 297 300 302 302 303 303 302 300 299 299 298 299
124 125 127 127 128 130 133 138 140 139 141 142 142 138 139 141 143 147 159 198 253 271 282 285 285 286 287 288 288 290 293 294 295 296 298 299 299 299 298 299 299 298 296 295
Wind_Speed_850mb
7 7 11 17 38 34 29 47 28 36 21 14 18 23 20 40 40 39 40 43 45 45 44 44 45 45 44 44 43 42 39 36 32 30 29 26 23 21 23 23 20 18 19 21
15 6 10 5 22 38 49 43 43 9 15 15 5 23 29 44 49 50 49 45 43 43 42 40 39 38 38 38 39 40 38 34 35 36 34 31 27 23 23 25 24 22 20 25
21 14 15 6 36 39 30 36 47 19 61 17 13 20 43 62 66 62 53 50 47 41 37 35 34 33 33 34 37 38 37 37 38 38 37 34 30 27 23 26 28 24 22 23
7 19 20 22 24 37 46 33 49 54 14 31 23 55 56 64 73 62 55 48 42 38 35 32 30 29 29 30 31 32 33 36 38 37 36 35 32 28 24 25 26 25 23 23
12 18 4 4 14 23 30 43 45 59 49 17 26 30 23 61 69 66 57 44 38 34 31 28 25 24 23 23 25 27 29 31 34 33 33 32 31 26 22 23 24 24 22 18
9 11 28 19 14 33 16 26 39 57 49 23 44 26 20 65 68 64 54 47 42 35 31 27 25 22 18 16 17 20 24 27 29 29 28 27 26 24 22 22 24 25 22 22
18 7 14 13 20 56 18 25 22 65 63 54 37 49 48 75 77 67 61 55 46 39 35 32 29 27 25 24 23 22 22 22 23 23 24 24 25 24 21 21 21 21 21 23
12 10 12 24 33 38 19 6 7 47 66 87 77 61 62 85 90 79 71 64 55 52 48 45 42 37 40 37 33 27 22 19 19 19 20 20 21 20 19 18 20 13 10 17
23 16 6 76 16 33 5 6 12 34 54 64 63 63 79 95 93 88 78 72 64 60 61 58 52 47 50 51 45 40 33 26 18 15 14 15 17 19 19 18 18 14 15 16
7 13 13 57 21 61 13 10 12 23 52 69 72 76 82 99 94 87 81 78 73 70 67 64 56 51 51 49 43 37 33 30 26 20 13 7 11 15 16 18 21 21 21 19
10 5 9 18 52 19 37 12 19 29 54 69 78 79 97 104 97 92 88 82 76 73 70 64 55 51 48 43 37 31 26 23 18 15 12 8 4 7 15 18 20 24 22 23
7 6 9 14 53 57 47 36 40 52 61 68 86 95 101 100 102 101 95 87 79 73 68 62 53 47 42 37 32 27 21 16 9 4 3 3 3 2 5 12 18 22 27 26
12 45 23 9 53 66 50 44 51 56 67 87 85 105 109 109 101 99 94 86 79 73 65 58 49 42 36 30 26 24 19 16 11 5 7 12 12 10 8 7 11 18 23 28
67 50 26 23 29 57 49 51 56 58 72 85 95 105 113 113 106 98 89 80 73 67 60 51 42 34 29 25 23 21 19 16 13 10 8 11 15 17 17 14 13 12 15 20
65 59 55 43 34 53 50 60 62 70 78 84 93 109 116 117 109 99 89 80 70 60 53 43 33 27 23 20 17 17 16 14 12 13 12 11 11 15 20 23 21 17 14 15
60 60 46 41 53 65 65 66 74 79 82 91 100 111 116 111 104 95 84 73 65 56 45 35 26 19 13 12 13 14 12 13 14 18 17 16 17 17 19 20 21 23 21 19
34 26 41 50 69 76 81 78 78 87 90 98 112 119 116 109 98 88 78 66 54 45 35 25 15 9 9 10 13 13 14 15 15 17 16 15 16 18 21 21 20 21 23 22
37 44 59 67 81 81 75 74 78 86 96 105 115 112 107 101 96 83 71 60 47 37 26 16 8 4 7 11 13 12 10 11 12 13 13 13 15 15 16 18 20 22 23 22
32 30 41 56 76 83 80 79 86 92 101 116 118 112 102 93 82 73 63 50 39 29 19 12 5 2 7 9 10 8 8 8 9 11 12 12 12 14 16 18 19 21 22 24
30 36 46 63 75 82 87 85 90 97 111 115 110 102 93 81 71 63 52 42 32 23 19 13 7 2 2 4 7 8 8 8 9 11 13 15 15 14 15 17 20 22 24 26
41 48 59 66 72 73 77 86 102 114 113 104 103 95 85 75 62 49 41 30 26 23 17 12 9 4 3 7 9 9 10 11 13 15 16 17 19 20 21 21 22 22 23 25
57 67 71 71 76 85 90 96 109 111 103 93 81 75 67 60 50 42 32 25 23 18 14 10 5 3 8 9 10 13 16 18 20 21 23 23 23 22 22 24 24 25 27 28
68 74 80 84 92 101 101 98 96 90 90 82 71 61 52 47 40 36 35 29 24 17 11 7 6 8 10 11 14 17 20 22 24 25 26 27 29 29 29 28 27 28 26 26
87 92 99 102 103 103 101 89 81 72 65 61 55 45 41 45 42 33 27 23 17 12 9 7 8 11 15 17 19 21 24 26 28 30 31 33 33 34 34 34 33 32 30 30
95 100 100 98 98 96 93 84 75 65 60 57 54 48 42 37 28 28 24 17 11 6 4 8 13 17 21 23 25 26 27 29 32 34 36 36 36 37 37 38 38 37 35 33
84 88 89 86 84 77 72 66 64 58 52 51 47 40 33 28 23 17 12 8 5 4 8 12 16 20 24 27 29 31 32 32 33 34 36 38 38 39 40 40 40 40 42 41
79 77 77 76 69 64 60 56 58 56 49 42 38 35 28 23 18 13 8 4 6 9 14 17 20 23 26 28 30 32 34 35 35 34 35 38 39 40 41 42 42 42 44 44
Wind_Direction_850mb
212 136 168 190 195 191 201 218 206 237 220 220 215 210 198 182 179 177 178 181 186 189 192 196 199 202 205 208 213 217 220 222 223 223 223 222 222 219 217 216 214 217 215 212
213 87 94 116 192 196 209 221 228 169 267 224 171 157 186 195 185 187 184 177 176 181 187 191 195 200 204 210 217 223 226 226 225 226 226 225 224 223 220 220 219 220 222 216
221 129 90 290 209 190 210 217 221 211 230 161 194 191 189 199 198 192 187 179 177 178 180 185 188 195 201 207 214 220 221 221 224 225 225 223 221 224 222 220 222 225 228 227
145 132 211 238 167 188 203 214 221 239 194 210 196 211 210 204 196 190 189 183 180 180 181 185 189 196 205 212 217 219 219 218 219 219 220 220 220 219 219 223 226 231 238 234
163 195 313 180 198 179 181 238 220 228 230 221 190 169 210 206 202 189 184 179 180 177 177 178 180 184 192 199 206 209 211 211 212 214 217 219 219 219 220 223 225 233 243 236
163 161 207 228 171 147 98 269 214 216 220 168 147 207 211 194 195 188 180 176 176 170 166 161 158 155 155 160 172 182 190 194 197 201 207 211 214 215 217 221 221 226 237 234
192 190 266 218 148 140 142 245 188 200 203 176 193 211 195 188 187 185 174 169 165 156 148 144 141 138 139 135 138 146 160 173 182 192 200 205 206 209 216 220 223 232 246 239
161 158 244 162 149 172 214 66 195 201 199 194 199 193 193 185 177 173 169 163 158 152 145 135 125 127 122 121 117 121 133 150 165 181 191 197 203 208 215 219 222 225 234 235
194 188 175 170 194 185 163 207 222 206 201 194 184 178 178 177 171 168 165 159 156 153 142 131 126 124 118 107 102 99 100 105 121 146 171 187 199 207 216 221 220 211 229 232
123 203 195 197 202 201 200 237 244 208 187 184 174 170 162 166 165 161 159 155 152 147 139 131 127 120 110 103 98 94 91 89 88 89 99 152 201 212 221 227 218 211 215 222
257 47 91 208 209 202 210 233 199 179 185 179 172 164 168 164 161 158 156 152 150 145 137 130 126 117 109 103 97 89 80 75 71 70 73 82 106 226 231 230 224 215 222 224
253 186 151 201 203 211 212 202 185 172 168 176 175 166 164 159 160 157 153 151 148 142 136 129 124 116 107 98 88 76 65 63 59 38 342 340 334 292 250 245 239 234 223 228
267 321 270 211 206 209 210 199 181 177 175 169 169 167 165 160 158 154 150 148 145 140 134 128 123 116 104 92 77 61 43 33 24 352 263 254 259 265 268 260 249 244 240 236
262 269 275 222 213 200 200 187 177 172 170 171 166 165 163 157 153 152 148 146 143 139 134 130 124 115 99 77 57 36 19 2 344 328 302 274 259 261 265 262 253 254 249 247
235 225 233 243 209 186 183 172 165 162 165 165 167 164 160 155 153 151 149 148 145 141 136 130 121 104 82 60 38 16 358 335 317 302 295 290 283 271 263 265 264 261 257 260
229 222 223 221 194 179 176 171 167 162 165 164 163 159 157 155 152 150 149 149 147 141 135 127 115 99 80 49 10 354 333 314 299 288 286 282 277 270 268 266 266 267 266 260
180 175 188 191 186 181 179 175 175 169 167 164 163 160 156 153 150 148 146 145 145 135 125 127 124 99 53 17 355 338 325 317 302 289 291 287 278 269 266 268 270 271 270 268
218 213 211 208 185 175 171 171 171 167 167 165 160 157 155 154 151 148 146 144 137 134 138 146 132 60 358 352 348 345 347 336 318 307 298 293 287 279 268 265 269 272 274 273
223 226 207 197 184 176 171 168 167 168 164 161 158 158 156 153 149 147 142 137 143 151 159 170 175 356 349 349 346 351 5 5 354 348 342 333 318 302 293 285 276 274 278 281
185 185 182 179 175 173 167 167 164 161 160 160 156 152 150 147 145 141 140 149 153 163 172 161 144 110 346 313 302 312 332 336 339 336 330 326 322 316 309 305 297 292 288 285
165 162 164 164 157 159 159 161 161 157 154 156 153 148 145 141 140 144 150 148 159 174 166 157 149 133 245 270 283 303 318 328 330 327 323 318 314 312 310 306 300 295 290 286
153 152 149 151 150 146 147 152 151 147 147 146 144 140 141 140 142 140 148 158 170 158 147 146 137 224 254 267 289 304 312 317 318 318 316 315 314 313 310 305 299 293 289 288
138 140 140 143 141 135 136 138 138 141 140 139 140 144 146 140 146 161 157 159 162 162 159 163 215 254 274 283 292 301 308 312 312 311 310 311 310 311 309 306 303 298 294 289
131 131 131 131 132 133 133 134 138 139 136 133 133 134 143 152 155 152 152 161 165 174 191 227 266 280 284 286 289 298 303 306 307 307 308 309 309 307 307 305 304 300 298 296
129 130 130 133 135 132 134 137 140 140 140 141 145 149 150 151 154 152 158 162 168 185 239 272 281 285 291 292 294 295 295 297 300 302 303 304 305 305 305 302 301 299 296 295
128 127 130 132 132 134 135 139 139 139 143 141 140 141 143 142 143 143 141 149 179 242 269 279 285 287 286 289 293 295 295 296 297 300 302 302 303 303 302 300 299 299 298 299
124 125 127 127 128 130 133 138 140 139 141 142 142 138 139 141 143 147 159 198 253 271 282 285 285 286 287 288 288 290 293 294 295 296 298 299 299 299 298 299 299 298 296 295